Location: Sungai Bunut
(2.6333°N, 113.7333°E)
Time: 01:34:10
(UTC+00:00)

S-56A Canister/Altair - Pass Details

Date: 07 December 2023
Orbit: 640 x 2488 km, 38.9° (Epoch: 24 February)

Event Time Altitude Azimuth Distance (km) Brightness Sun altitude
Rises 10:49:42 0° 317° (NW) 3,674 11.3 -8.7°
Reaches altitude 10° 10:51:57 10° 320° (NW) 2,910 10.7 -9.2°
Maximum altitude 10:59:10 71° 43° (NE) 1,498 8.8 -10.9°
Drops below altitude 10° 11:10:21 10° 125° (SE) 4,374 11.1 -13.5°
Sets 11:14:28 0° 127° (SE) 5,625 11.6 -14.4°
